Location: Banios
(43.0451°N, 0.2335°E)
Time: 13:26:01
(UTC+00:00)

MOS 1 Rocket - Pass Details

Date: 25 January 2021
Orbit: 614 x 830 km, 97.4° (Epoch: 25 February)

Event Time Altitude Azimuth Distance (km) Brightness Sun altitude
Rises 05:49:32 0° 181° (S) 3,205 6.8 -16.7°
Reaches altitude 10° 05:51:57 10° 186° (S) 2,251 6.0 -16.2°
Maximum altitude 05:56:43 48° 261° (W) 928 3.5 -15.4°
Drops below altitude 10° 06:01:15 10° 336° (NNW) 2,133 5.5 -14.6°
Enters shadow 06:02:40 - 341° (NNW) 2,687 6.0 -14.3°
